This is the latest recevied weather packets stored in our database for station/object KP4FJC. If no packets are shown the sender has not sent any weather packets the latest 1 day(s).
| Time | Temp. | Humidity | Pressure | Rain* | Wind** | Luminosity | Snow |
|---|---|---|---|---|---|---|---|
| 1777980104 | 27.22° C | 83% | 1018.2 hPa | 0 mm | 0 m/s | 135 W/m² | - |
| 1777979803 | 26.67° C | 83% | 1018.1 hPa | 0 mm | 0 m/s | 119 W/m² | - |
| 1777979499 | 26.11° C | 84% | 1018 hPa | 0 mm | 0 m/s | 108 W/m² | - |
| 1777979195 | 26.11° C | 83% | 1018.1 hPa | 0 mm | 0 m/s | 95 W/m² | - |
| 1777978893 | 26.67° C | 83% | 1018.2 hPa | 0 mm | 0 m/s | 84 W/m² | - |
| 1777978589 | 25.56° C | 87% | 1018.2 hPa | 0 mm | 0 m/s | 75 W/m² | - |
| 1777978285 | 25° C | 90% | 1018.2 hPa | 0 mm | 0 m/s | 68 W/m² | - |
| 1777977982 | 24.44° C | 91% | 1018.1 hPa | 0 mm | 0 m/s | 63 W/m² | - |
| 1777977680 | 23.89° C | 91% | 1018.1 hPa | 0 mm | 0.45 m/s, 339° | 52 W/m² | - |
| 1777977376 | 23.89° C | 92% | 1017.9 hPa | 0 mm | 0 m/s | 42 W/m² | - |
| 1777977074 | 23.89° C | 92% | 1017.7 hPa | 0 mm | 0 m/s | 34 W/m² | - |
| 1777976771 | 23.33° C | 92% | 1017.7 hPa | 0 mm | 0 m/s | 29 W/m² | - |
| 1777976468 | 23.33° C | 92% | 1017.6 hPa | 0 mm | 0 m/s | 24 W/m² | - |
| 1777976167 | 23.33° C | 93% | 1017.6 hPa | 0 mm | 0.45 m/s, 308° | 19 W/m² | - |
| 1777975863 | 23.33° C | 93% | 1017.4 hPa | 0 mm | 0.45 m/s, 306° | 14 W/m² | - |
| 1777975559 | 23.33° C | 93% | 1017.3 hPa | 0 mm | 0.45 m/s, 204° | 10 W/m² | - |
| 1777975256 | 23.33° C | 93% | 1017.5 hPa | 0 mm | 0.45 m/s, 233° | 6 W/m² | - |
| 1777974952 | 23.33° C | 93% | 1017.2 hPa | 0 mm | 0.45 m/s, 294° | 3 W/m² | - |
| 1777974649 | 23.33° C | 93% | 1017.3 hPa | 0 mm | 0.45 m/s, 323° | 2 W/m² | - |
| 1777974346 | 23.33° C | 93% | 1017.6 hPa | 0 mm | 0 m/s | 1 W/m² | - |
| 1777974042 | 23.33° C | 93% | 1017.3 hPa | 0 mm | 0.45 m/s, 327° | 0 W/m² | - |
| 1777973738 | 23.33° C | 93% | 1017.3 hPa | 0 mm | 0 m/s | 0 W/m² | - |
| 1777973436 | 23.89° C | 93% | 1017.3 hPa | 0 mm | 0 m/s | 0 W/m² | - |
| 1777973133 | 23.89° C | 93% | 1017.3 hPa | 0 mm | 0 m/s | 0 W/m² | - |
| 1777972832 | 23.33° C | 93% | 1017.4 hPa | 0 mm | 0 m/s | 0 W/m² | - |
* Rain latest hour (hover to see other rain measurements)
** Current wind speed in m/s (hover to see current wind gust speed)